McAlester, OK

6:00 PM CST on November 15, 2019 (GMT -0600)
McAlester Regional

Weather History for KMLC - October, 2019

Change the Weather History Date:

Tuesday, October 22, 2019

  Actual Average Record
Temperature  
Mean Temperature 54 °F -  
Max Temperature 71 °F 72 °F 88 °F (1963)
Min Temperature 36 °F 50 °F 32 °F (1990)
Degree Days  
Heating Degree Days 12    
Growing Degree Days 4 (Base 50)    
Moisture  
Dew Point 35 °F    
Average Humidity 62    
Maximum Humidity 93    
Minimum Humidity 23    
Precipitation  
Precipitation 0.00 in - - ()
Sea Level Pressure  
Sea Level Pressure 30.14 in    
Wind  
Wind Speed 3 mph ()    
Max Wind Speed 13 mph    
Max Gust Speed 22 mph    
Visibility 9.9 miles    
Events      
Averages and records for this station are not official NWS values.
T = Trace of Precipitation, MM = Missing Value Source: Averaged Metar Reports

Daily Weather History Graph

Daily Weather History Graph

Search for Another Location

Airport or City:

Astronomy

Oct. 22, 2019 Rise Set
Actual Time 7:34 AM CDT 6:39 PM CDT
Civil Twilight 7:09 AM CDT 7:05 PM CDT
Nautical Twilight 6:39 AM CDT 7:35 PM CDT
Astronomical Twilight 6:10 AM CDT 8:04 PM CDT
Moon 1:05 AM CDT (10/22) 3:31 PM CDT (10/22)
Length of Visible Light 11h 56m
Length of Day
11h 05m
Last Quarter, 37% of the Moon is Illuminated
Oct 22
Last Quarter
Oct 27
New
Nov 4
First Quarter
Nov 12
Full
Nov 19
Last Quarter

Hourly Weather History & Observations

Time (CDT) Temp. Windchill Dew Point Humidity Pressure Visibility Wind Dir Wind Speed Gust Speed Precip Events Conditions
12:53 AM 42.1 °F - 39.9 °F 92% 30.08 in 10.0 mi Calm Calm - N/A   Scattered Clouds
1:53 AM 48.0 °F - 37.0 °F 66% 30.08 in 10.0 mi NNW 6.9 mph - N/A   Partly Cloudy
2:53 AM 39.9 °F - 36.0 °F 86% 30.09 in 10.0 mi Calm Calm - N/A   Scattered Clouds
3:53 AM 37.9 °F - 36.0 °F 93% 30.11 in 10.0 mi Calm Calm - N/A   Clear
4:53 AM 37.0 °F - 35.1 °F 93% 30.11 in 10.0 mi Calm Calm - N/A   Partly Cloudy
5:53 AM 43.0 °F 40.3 °F 32.0 °F 65% 30.14 in 10.0 mi NW 4.6 mph - N/A   Clear
6:53 AM 36.0 °F 33.3 °F 34.0 °F 93% 30.17 in 10.0 mi SW 3.5 mph - N/A   Clear
7:53 AM 36.0 °F - 34.0 °F 93% 30.18 in 10.0 mi Calm Calm - N/A   Scattered Clouds
8:53 AM 44.1 °F - 37.0 °F 76% 30.21 in 10.0 mi Calm Calm - N/A   Clear
9:53 AM 54.0 °F - 35.1 °F 49% 30.22 in 10.0 mi West 5.8 mph - N/A   Partly Cloudy
10:53 AM 57.9 °F - 32.0 °F 37% 30.22 in 10.0 mi Variable 5.8 mph - N/A   Partly Cloudy
11:53 AM 64.0 °F - 28.9 °F 27% 30.22 in 10.0 mi West 12.7 mph - N/A   Partly Cloudy
12:53 PM 66.9 °F - 28.9 °F 24% 30.20 in 10.0 mi WSW 11.5 mph - N/A   Partly Cloudy
1:53 PM 69.1 °F - 30.0 °F 23% 30.17 in 10.0 mi West 10.4 mph 17.3 mph N/A   Partly Cloudy
2:53 PM 70.0 °F - 30.0 °F 23% 30.15 in 10.0 mi WNW 11.5 mph 21.9 mph N/A   Partly Cloudy
3:53 PM 71.1 °F - 30.9 °F 23% 30.14 in 10.0 mi West 8.1 mph - N/A   Partly Cloudy
4:53 PM 70.0 °F - 30.9 °F 24% 30.12 in 9.0 mi West 9.2 mph - N/A   Clear
5:53 PM 68.0 °F - 32.0 °F 26% 30.11 in 8.0 mi West 5.8 mph - N/A   Clear
6:53 PM 54.0 °F - 42.1 °F 64% 30.11 in 10.0 mi South 3.5 mph - N/A   Partly Cloudy
7:53 PM 48.9 °F - 42.1 °F 77% 30.11 in 10.0 mi Calm Calm - N/A   Clear
8:53 PM 46.9 °F - 41.0 °F 80% 30.10 in 10.0 mi Calm Calm - N/A   Partly Cloudy
9:53 PM 45.0 °F - 39.9 °F 82% 30.10 in 10.0 mi Calm Calm - N/A   Scattered Clouds
10:53 PM 44.1 °F - 39.9 °F 85% 30.09 in 10.0 mi Calm Calm - N/A   Scattered Clouds
11:53 PM 45.0 °F - 39.9 °F 82% 30.09 in 10.0 mi Calm Calm - N/A   Partly Cloudy